Location: Timmins
(48.4758°N, 81.3305°W)
Time: 11:16:00
(UTC-04:00)

ISS - Visible Passes

Search period start: 21 September 2023 00:00
Search period end: 01 October 2023 00:00
Orbit: 414 x 422 km, 51.6° (Epoch: 21 September)

Date Brightness Start Highest point End Pass type
(mag) Time Alt. Az. Time Alt. Az. Time Alt. Az.
21 Sep -3.0 21:02:23 10° WNW 21:05:37 47° N 21:06:49 31° NE visible
21 Sep -0.5 22:39:19 10° WNW 22:39:44 13° WNW 22:39:44 13° WNW visible
22 Sep -3.1 20:14:20 10° W 20:17:36 50° N 20:20:39 12° ENE visible
22 Sep -2.2 21:51:22 10° WNW 21:53:34 36° NW 21:53:34 36° NW visible
23 Sep -3.2 21:03:22 10° WNW 21:06:39 50° N 21:07:22 41° NE visible
23 Sep -0.3 22:40:12 10° WNW 22:40:17 11° WNW 22:40:17 11° WNW visible
24 Sep -3.1 20:15:18 10° WNW 20:18:33 46° N 20:21:08 15° ENE visible
24 Sep -1.9 21:52:10 10° WNW 21:54:03 31° WNW 21:54:03 31° WNW visible
25 Sep -3.8 21:04:07 10° WNW 21:07:28 70° NNE 21:07:47 63° ENE visible
26 Sep -3.4 20:16:02 10° WNW 20:19:21 56° NNE 20:21:32 19° E visible
26 Sep -1.5 21:52:52 10° WNW 21:54:27 24° W 21:54:27 24° W visible
27 Sep -3.7 21:04:43 10° WNW 21:08:03 66° SSW 21:08:11 65° S visible
28 Sep -3.8 20:16:34 10° WNW 20:19:55 89° NNE 20:21:56 22° ESE visible
28 Sep -1.0 21:53:46 10° W 21:54:51 16° WSW 21:54:51 16° WSW visible
29 Sep -2.5 21:05:20 10° W 21:08:20 31° SW 21:08:38 30° SSW visible
30 Sep -3.0 20:17:00 10° WNW 20:20:13 46° SSW 20:22:28 17° SE visible
